GFSNW_prec_precacc24_036.txt.gz
Total_Precipitation_Accumulation
0.01 0.01 0.00 0.00 0.10 0.11 0.05 0.10 0.24 0.09 0.02 0.03 0.07 0.33 0.42 0.14 0.02 0.01 0.00 0.00 0.00 0.00 0.00 0.00 0.00 0.00 0.00 0.00 0.00 0.00 0.00 0.00 0.00 0.00 0.00 0.00 0.00 0.00 0.01 0.07 0.02 0.06 0.05 0.02
0.01 0.01 0.00 0.00 0.06 0.10 0.07 0.09 0.13 0.12 0.07 0.05 0.07 0.19 0.04 0.01 0.03 0.01 0.00 0.00 0.00 0.00 0.00 0.00 0.00 0.00 0.00 0.00 0.00 0.00 0.00 0.01 0.00 0.00 0.01 0.01 0.00 0.00 0.00 0.04 0.19 0.14 0.09 0.03
0.01 0.01 0.00 0.00 0.01 0.06 0.10 0.05 0.08 0.06 0.01 0.02 0.05 0.12 0.06 0.02 0.03 0.00 0.00 0.00 0.00 0.00 0.00 0.00 0.00 0.00 0.00 0.00 0.00 0.00 0.00 0.00 0.00 0.00 0.00 0.01 0.02 0.00 0.02 0.16 0.32 0.06 0.03 0.00
0.01 0.01 0.00 0.00 0.00 0.01 0.01 0.02 0.01 0.01 0.01 0.01 0.03 0.03 0.04 0.01 0.00 0.00 0.00 0.00 0.00 0.00 0.00 0.00 0.00 0.00 0.00 0.00 0.00 0.00 0.00 0.01 0.00 0.00 0.00 0.00 0.00 0.00 0.01 0.18 0.11 0.19 0.06 0.00
0.01 0.01 0.00 0.00 0.00 0.00 0.00 0.00 0.01 0.01 0.00 0.00 0.00 0.00 0.01 0.01 0.00 0.00 0.00 0.00 0.00 0.00 0.00 0.00 0.00 0.00 0.00 0.00 0.00 0.00 0.00 0.01 0.00 0.00 0.00 0.00 0.00 0.00 0.02 0.02 0.01 0.02 0.00 0.00
0.01 0.01 0.00 0.00 0.00 0.00 0.01 0.01 0.00 0.02 0.01 0.00 0.00 0.00 0.00 0.00 0.00 0.00 0.00 0.00 0.00 0.00 0.00 0.00 0.00 0.00 0.00 0.00 0.00 0.00 0.01 0.00 0.01 0.01 0.00 0.00 0.02 0.02 0.01 0.01 0.00 0.01 0.02 0.01
0.01 0.01 0.01 0.00 0.00 0.01 0.01 0.02 0.02 0.02 0.00 0.00 0.00 0.00 0.00 0.00 0.00 0.00 0.00 0.00 0.01 0.00 0.00 0.00 0.00 0.00 0.00 0.00 0.00 0.00 0.00 0.01 0.03 0.02 0.01 0.03 0.02 0.00 0.00 0.00 0.00 0.00 0.01 0.04
0.02 0.02 0.02 0.01 0.01 0.00 0.01 0.03 0.03 0.02 0.01 0.00 0.00 0.00 0.00 0.00 0.00 0.00 0.00 0.00 0.00 0.00 0.00 0.00 0.00 0.00 0.00 0.00 0.00 0.01 0.00 0.02 0.05 0.06 0.04 0.01 0.01 0.00 0.02 0.00 0.00 0.00 0.02 0.02
0.05 0.06 0.03 0.03 0.01 0.00 0.00 0.03 0.02 0.02 0.02 0.00 0.00 0.00 0.00 0.00 0.00 0.00 0.00 0.00 0.00 0.00 0.01 0.02 0.01 0.01 0.01 0.00 0.00 0.00 0.01 0.02 0.08 0.09 0.11 0.02 0.01 0.00 0.00 0.00 0.01 0.00 0.00 0.00
0.05 0.06 0.04 0.05 0.05 0.02 0.00 0.01 0.01 0.01 0.02 0.00 0.00 0.00 0.00 0.00 0.00 0.01 0.00 0.00 0.00 0.00 0.02 0.02 0.01 0.01 0.00 0.00 0.01 0.02 0.04 0.09 0.12 0.11 0.13 0.01 0.00 0.00 0.00 0.02 0.01 0.00 0.00 0.00
0.07 0.06 0.06 0.08 0.12 0.03 0.00 0.00 0.01 0.01 0.02 0.00 0.00 0.00 0.00 0.00 0.00 0.01 0.00 0.01 0.01 0.01 0.03 0.02 0.01 0.02 0.01 0.00 0.00 0.00 0.01 0.03 0.05 0.05 0.07 0.00 0.00 0.00 0.00 0.00 0.00 0.00 0.01 0.01
0.10 0.04 0.05 0.10 0.14 0.09 0.02 0.01 0.00 0.01 0.04 0.01 0.00 0.00 0.00 0.00 0.00 0.02 0.01 0.02 0.00 0.00 0.01 0.02 0.03 0.02 0.00 0.00 0.00 0.00 0.00 0.00 0.00 0.00 0.00 0.00 0.00 0.00 0.00 0.00 0.00 0.00 0.00 0.00
0.07 0.07 0.06 0.10 0.13 0.09 0.11 0.02 0.01 0.03 0.13 0.04 0.03 0.02 0.00 0.00 0.00 0.00 0.03 0.04 0.02 0.02 0.01 0.05 0.04 0.02 0.02 0.01 0.00 0.00 0.00 0.00 0.00 0.00 0.00 0.00 0.00 0.00 0.00 0.00 0.00 0.00 0.00 0.00
0.12 0.11 0.06 0.06 0.06 0.09 0.11 0.03 0.01 0.06 0.18 0.17 0.05 0.01 0.02 0.01 0.01 0.02 0.02 0.05 0.05 0.09 0.11 0.05 0.03 0.02 0.01 0.01 0.01 0.00 0.01 0.00 0.00 0.00 0.00 0.00 0.00 0.00 0.00 0.00 0.00 0.00 0.00 0.00
0.16 0.13 0.05 0.10 0.13 0.11 0.07 0.00 0.01 0.04 0.20 0.27 0.16 0.16 0.01 0.01 0.05 0.04 0.05 0.05 0.14 0.10 0.27 0.25 0.04 0.01 0.01 0.01 0.00 0.00 0.00 0.00 0.00 0.00 0.00 0.00 0.00 0.00 0.00 0.00 0.00 0.00 0.00 0.00
0.20 0.08 0.11 0.11 0.08 0.13 0.11 0.05 0.08 0.10 0.16 0.48 0.39 0.33 0.16 0.06 0.09 0.09 0.10 0.10 0.23 0.34 0.22 0.36 0.18 0.01 0.04 0.05 0.01 0.00 0.00 0.00 0.00 0.00 0.00 0.00 0.00 0.00 0.00 0.00 0.00 0.00 0.00 0.00
0.09 0.09 0.08 0.04 0.04 0.07 0.06 0.04 0.31 0.39 0.43 0.53 0.76 0.66 0.48 0.14 0.23 0.26 0.27 0.23 0.36 0.62 0.35 0.18 0.23 0.08 0.10 0.09 0.01 0.00 0.01 0.01 0.01 0.00 0.00 0.00 0.00 0.00 0.00 0.00 0.00 0.00 0.00 0.00
0.05 0.05 0.01 0.01 0.07 0.04 0.03 0.02 0.12 0.37 0.73 0.84 1.01 0.98 0.96 0.32 0.52 0.45 0.39 0.34 0.37 0.81 0.50 0.15 0.09 0.19 0.07 0.03 0.00 0.00 0.02 0.01 0.00 0.00 0.00 0.00 0.00 0.00 0.00 0.00 0.00 0.00 0.00 0.00
0.01 0.00 0.00 0.05 0.04 0.02 0.05 0.10 0.23 0.48 0.78 0.73 0.74 0.87 0.77 0.62 0.60 0.43 0.53 0.39 0.43 0.58 0.41 0.14 0.13 0.09 0.03 0.00 0.00 0.00 0.00 0.00 0.00 0.00 0.00 0.00 0.00 0.00 0.00 0.00 0.00 0.00 0.00 0.00
0.00 0.00 0.01 0.03 0.00 0.00 0.10 0.33 0.54 0.64 0.53 0.44 0.57 0.49 0.40 0.80 0.58 0.50 0.55 0.29 0.37 0.48 0.27 0.16 0.14 0.05 0.00 0.00 0.00 0.00 0.00 0.00 0.00 0.00 0.00 0.00 0.00 0.00 0.00 0.00 0.00 0.00 0.00 0.01
0.00 0.00 0.00 0.00 0.02 0.14 0.25 0.38 0.47 0.33 0.23 0.34 0.36 0.35 0.31 0.39 0.41 0.27 0.31 0.28 0.23 0.20 0.25 0.13 0.03 0.01 0.00 0.00 0.00 0.00 0.00 0.00 0.00 0.00 0.00 0.00 0.00 0.00 0.00 0.00 0.00 0.00 0.00 0.03
0.00 0.01 0.01 0.04 0.15 0.14 0.17 0.21 0.20 0.11 0.11 0.17 0.24 0.26 0.31 0.36 0.10 0.18 0.18 0.08 0.09 0.06 0.01 0.05 0.01 0.00 0.00 0.00 0.00 0.00 0.00 0.00 0.00 0.00 0.00 0.00 0.00 0.00 0.00 0.00 0.00 0.00 0.00 0.01
0.01 0.02 0.02 0.03 0.03 0.06 0.07 0.07 0.06 0.07 0.07 0.07 0.11 0.26 0.21 0.33 0.13 0.16 0.16 0.02 0.01 0.01 0.03 0.02 0.00 0.00 0.00 0.00 0.00 0.00 0.00 0.00 0.02 0.03 0.03 0.02 0.03 0.05 0.07 0.06 0.03 0.01 0.02 0.03
0.00 0.00 0.00 0.01 0.02 0.05 0.03 0.04 0.04 0.02 0.02 0.02 0.03 0.11 0.19 0.22 0.14 0.04 0.06 0.04 0.01 0.01 0.01 0.00 0.00 0.00 0.00 0.00 0.00 0.00 0.00 0.01 0.07 0.17 0.20 0.21 0.32 0.34 0.27 0.19 0.12 0.10 0.09 0.06
0.00 0.00 0.00 0.00 0.00 0.00 0.00 0.00 0.00 0.01 0.01 0.02 0.02 0.07 0.10 0.13 0.13 0.04 0.01 0.01 0.01 0.00 0.00 0.00 0.00 0.00 0.00 0.00 0.00 0.00 0.00 0.00 0.00 0.08 0.06 0.03 0.07 0.07 0.17 0.25 0.21 0.13 0.10 0.09
0.00 0.00 0.00 0.00 0.00 0.00 0.00 0.00 0.01 0.01 0.01 0.04 0.05 0.09 0.10 0.10 0.08 0.04 0.01 0.00 0.00 0.00 0.00 0.00 0.00 0.00 0.00 0.00 0.00 0.00 0.00 0.00 0.00 0.01 0.01 0.00 0.00 0.00 0.02 0.08 0.21 0.20 0.17 0.19
0.00 0.00 0.00 0.00 0.00 0.00 0.00 0.00 0.00 0.00 0.03 0.12 0.18 0.21 0.09 0.07 0.06 0.00 0.00 0.00 0.00 0.00 0.00 0.00 0.00 0.00 0.00 0.00 0.00 0.00 0.00 0.00 0.00 0.00 0.00 0.00 0.00 0.00 0.00 0.00 0.01 0.06 0.14 0.20

GFSNW_prec_precacc24_039.txt.gz
Total_Precipitation_Accumulation
0.01 0.01 0.00 0.00 0.09 0.07 0.01 0.00 0.03 0.03 0.02 0.02 0.04 0.25 0.39 0.14 0.01 0.00 0.00 0.00 0.00 0.00 0.00 0.00 0.00 0.00 0.00 0.00 0.00 0.00 0.00 0.00 0.00 0.00 0.00 0.00 0.00 0.00 0.00 0.01 0.00 0.00 0.02 0.01
0.00 0.00 0.00 0.00 0.04 0.04 0.02 0.01 0.02 0.01 0.04 0.02 0.05 0.13 0.03 0.01 0.02 0.01 0.00 0.00 0.00 0.00 0.00 0.00 0.00 0.00 0.00 0.00 0.00 0.00 0.00 0.00 0.00 0.00 0.00 0.00 0.00 0.00 0.00 0.01 0.09 0.06 0.03 0.01
0.00 0.01 0.00 0.00 0.00 0.01 0.00 0.01 0.02 0.01 0.00 0.01 0.03 0.09 0.04 0.02 0.02 0.00 0.00 0.00 0.00 0.00 0.00 0.00 0.00 0.00 0.00 0.00 0.00 0.00 0.00 0.00 0.00 0.00 0.00 0.00 0.00 0.00 0.00 0.07 0.19 0.04 0.01 0.00
0.01 0.00 0.00 0.00 0.00 0.00 0.00 0.01 0.00 0.00 0.00 0.00 0.01 0.02 0.03 0.01 0.00 0.00 0.00 0.00 0.00 0.00 0.00 0.00 0.00 0.00 0.00 0.00 0.00 0.00 0.00 0.00 0.00 0.00 0.00 0.00 0.00 0.00 0.00 0.07 0.06 0.13 0.04 0.00
0.01 0.01 0.00 0.00 0.00 0.00 0.00 0.00 0.01 0.00 0.00 0.00 0.00 0.00 0.00 0.01 0.00 0.00 0.00 0.00 0.00 0.00 0.00 0.00 0.00 0.00 0.00 0.00 0.00 0.00 0.00 0.00 0.00 0.00 0.00 0.00 0.00 0.00 0.00 0.00 0.00 0.00 0.00 0.00
0.02 0.01 0.00 0.00 0.00 0.00 0.00 0.00 0.00 0.02 0.00 0.00 0.00 0.00 0.00 0.00 0.00 0.00 0.00 0.00 0.00 0.00 0.00 0.00 0.00 0.00 0.00 0.00 0.00 0.00 0.00 0.00 0.01 0.00 0.00 0.00 0.00 0.00 0.00 0.00 0.00 0.01 0.01 0.01
0.02 0.01 0.01 0.00 0.00 0.00 0.01 0.01 0.02 0.01 0.00 0.00 0.00 0.00 0.00 0.00 0.00 0.00 0.00 0.00 0.00 0.00 0.00 0.00 0.00 0.00 0.00 0.00 0.00 0.00 0.00 0.00 0.02 0.01 0.00 0.00 0.00 0.00 0.00 0.00 0.00 0.00 0.01 0.04
0.03 0.02 0.02 0.01 0.01 0.00 0.01 0.01 0.01 0.02 0.01 0.00 0.00 0.00 0.00 0.00 0.00 0.00 0.00 0.00 0.00 0.00 0.00 0.00 0.00 0.01 0.00 0.00 0.00 0.00 0.00 0.01 0.02 0.02 0.01 0.00 0.01 0.00 0.00 0.00 0.00 0.00 0.01 0.01
0.05 0.06 0.03 0.03 0.02 0.00 0.00 0.01 0.00 0.02 0.02 0.00 0.00 0.00 0.00 0.00 0.00 0.00 0.00 0.00 0.00 0.00 0.00 0.01 0.00 0.01 0.01 0.00 0.01 0.00 0.01 0.01 0.06 0.06 0.04 0.00 0.01 0.00 0.00 0.00 0.00 0.00 0.00 0.00
0.06 0.06 0.04 0.06 0.07 0.03 0.00 0.01 0.00 0.00 0.01 0.00 0.00 0.00 0.00 0.00 0.00 0.01 0.00 0.00 0.00 0.00 0.02 0.01 0.00 0.00 0.00 0.00 0.01 0.02 0.04 0.09 0.11 0.08 0.09 0.00 0.00 0.00 0.00 0.03 0.02 0.00 0.00 0.00
0.07 0.06 0.06 0.08 0.12 0.04 0.01 0.00 0.00 0.00 0.01 0.00 0.00 0.00 0.00 0.00 0.00 0.01 0.00 0.02 0.01 0.01 0.04 0.02 0.00 0.01 0.00 0.00 0.00 0.00 0.01 0.03 0.05 0.05 0.07 0.00 0.00 0.00 0.00 0.00 0.00 0.00 0.00 0.00
0.10 0.05 0.07 0.11 0.14 0.09 0.04 0.01 0.01 0.01 0.02 0.00 0.00 0.00 0.00 0.00 0.00 0.01 0.01 0.02 0.00 0.01 0.03 0.02 0.01 0.01 0.00 0.00 0.00 0.00 0.00 0.00 0.00 0.00 0.00 0.00 0.00 0.00 0.00 0.00 0.00 0.00 0.00 0.00
0.07 0.09 0.08 0.10 0.13 0.10 0.15 0.09 0.03 0.03 0.10 0.03 0.03 0.02 0.00 0.00 0.00 0.00 0.03 0.04 0.02 0.04 0.01 0.01 0.03 0.01 0.01 0.01 0.00 0.00 0.00 0.00 0.00 0.00 0.00 0.00 0.00 0.00 0.00 0.00 0.00 0.00 0.00 0.00
0.12 0.12 0.06 0.06 0.06 0.11 0.14 0.04 0.02 0.06 0.15 0.17 0.05 0.01 0.02 0.01 0.01 0.02 0.02 0.05 0.05 0.11 0.16 0.08 0.02 0.02 0.01 0.01 0.00 0.00 0.00 0.00 0.00 0.00 0.00 0.00 0.00 0.00 0.00 0.00 0.00 0.00 0.00 0.00
0.16 0.13 0.05 0.10 0.15 0.13 0.07 0.01 0.01 0.04 0.18 0.26 0.16 0.15 0.01 0.01 0.05 0.04 0.05 0.05 0.14 0.10 0.27 0.33 0.14 0.04 0.01 0.01 0.00 0.00 0.00 0.00 0.00 0.00 0.00 0.00 0.00 0.00 0.00 0.00 0.00 0.00 0.00 0.00
0.20 0.09 0.11 0.12 0.09 0.12 0.11 0.03 0.03 0.06 0.13 0.47 0.38 0.32 0.16 0.06 0.09 0.09 0.10 0.10 0.23 0.33 0.21 0.37 0.25 0.09 0.07 0.05 0.01 0.00 0.00 0.00 0.00 0.00 0.00 0.00 0.00 0.00 0.00 0.00 0.00 0.00 0.00 0.00
0.09 0.10 0.09 0.04 0.03 0.06 0.05 0.02 0.24 0.35 0.36 0.50 0.75 0.66 0.48 0.14 0.23 0.26 0.27 0.23 0.37 0.63 0.36 0.18 0.25 0.21 0.24 0.12 0.01 0.00 0.01 0.01 0.01 0.00 0.00 0.00 0.00 0.00 0.00 0.00 0.00 0.00 0.00 0.00
0.06 0.05 0.01 0.00 0.05 0.03 0.03 0.01 0.11 0.30 0.62 0.79 1.00 0.98 0.96 0.32 0.51 0.45 0.39 0.33 0.38 0.84 0.52 0.15 0.08 0.28 0.26 0.09 0.00 0.00 0.02 0.01 0.00 0.00 0.00 0.00 0.00 0.00 0.00 0.00 0.00 0.00 0.00 0.00
0.01 0.00 0.00 0.02 0.02 0.01 0.04 0.10 0.20 0.41 0.72 0.73 0.75 0.88 0.78 0.63 0.61 0.44 0.52 0.38 0.42 0.58 0.42 0.16 0.16 0.20 0.24 0.03 0.00 0.00 0.00 0.00 0.00 0.00 0.00 0.00 0.00 0.00 0.00 0.00 0.00 0.00 0.00 0.00
0.00 0.00 0.01 0.02 0.00 0.00 0.08 0.29 0.45 0.57 0.54 0.46 0.59 0.51 0.43 0.86 0.62 0.52 0.59 0.30 0.40 0.56 0.28 0.19 0.19 0.13 0.01 0.01 0.00 0.00 0.00 0.00 0.00 0.00 0.00 0.00 0.00 0.00 0.00 0.00 0.00 0.00 0.00 0.01
0.00 0.00 0.00 0.00 0.00 0.06 0.17 0.28 0.32 0.27 0.25 0.37 0.38 0.38 0.35 0.47 0.49 0.31 0.37 0.40 0.35 0.55 0.35 0.21 0.09 0.04 0.01 0.00 0.00 0.00 0.00 0.00 0.00 0.00 0.00 0.00 0.00 0.00 0.00 0.00 0.00 0.00 0.00 0.03
0.01 0.01 0.00 0.01 0.05 0.10 0.15 0.12 0.11 0.12 0.15 0.19 0.25 0.27 0.33 0.42 0.21 0.32 0.27 0.19 0.15 0.14 0.08 0.15 0.06 0.00 0.00 0.00 0.00 0.00 0.00 0.00 0.00 0.00 0.00 0.00 0.00 0.00 0.00 0.00 0.00 0.00 0.00 0.01
0.01 0.01 0.02 0.02 0.02 0.07 0.09 0.06 0.06 0.08 0.08 0.07 0.11 0.26 0.22 0.37 0.25 0.27 0.23 0.05 0.03 0.02 0.04 0.02 0.00 0.00 0.00 0.00 0.00 0.00 0.00 0.00 0.02 0.03 0.03 0.02 0.03 0.05 0.08 0.08 0.06 0.05 0.04 0.03
0.00 0.00 0.00 0.01 0.02 0.05 0.04 0.04 0.04 0.02 0.02 0.02 0.03 0.11 0.19 0.26 0.19 0.11 0.10 0.05 0.04 0.05 0.03 0.00 0.00 0.00 0.00 0.00 0.00 0.00 0.00 0.01 0.07 0.17 0.20 0.21 0.32 0.34 0.27 0.19 0.15 0.12 0.10 0.07
0.00 0.00 0.00 0.00 0.00 0.00 0.00 0.00 0.00 0.00 0.01 0.01 0.02 0.07 0.11 0.16 0.18 0.08 0.03 0.02 0.02 0.01 0.02 0.00 0.00 0.00 0.00 0.00 0.00 0.00 0.00 0.00 0.00 0.08 0.06 0.03 0.07 0.07 0.17 0.25 0.21 0.13 0.10 0.09
0.00 0.00 0.00 0.00 0.00 0.00 0.00 0.00 0.01 0.01 0.01 0.03 0.05 0.08 0.11 0.12 0.15 0.08 0.03 0.01 0.00 0.00 0.00 0.00 0.00 0.00 0.00 0.00 0.00 0.00 0.00 0.00 0.00 0.01 0.01 0.00 0.00 0.00 0.02 0.08 0.21 0.20 0.17 0.19
0.00 0.00 0.00 0.00 0.00 0.00 0.00 0.00 0.00 0.00 0.03 0.11 0.15 0.19 0.08 0.08 0.10 0.02 0.00 0.01 0.00 0.00 0.00 0.00 0.00 0.00 0.00 0.00 0.00 0.00 0.00 0.00 0.00 0.00 0.00 0.00 0.00 0.00 0.00 0.00 0.01 0.06 0.14 0.20

GFSNW_prec_precacc24_042.txt.gz
Total_Precipitation_Accumulation
0.00 0.00 0.00 0.00 0.01 0.02 0.00 0.00 0.00 0.00 0.00 0.00 0.03 0.18 0.30 0.11 0.01 0.00 0.00 0.00 0.00 0.00 0.00 0.00 0.00 0.00 0.00 0.00 0.00 0.00 0.00 0.00 0.00 0.00 0.00 0.00 0.00 0.00 0.02 0.00 0.00 0.00 0.00 0.00
0.00 0.00 0.00 0.00 0.00 0.00 0.00 0.00 0.00 0.00 0.00 0.00 0.04 0.07 0.01 0.00 0.01 0.00 0.00 0.00 0.00 0.00 0.00 0.00 0.00 0.00 0.00 0.00 0.00 0.00 0.00 0.00 0.00 0.00 0.00 0.00 0.00 0.00 0.00 0.01 0.02 0.02 0.01 0.00
0.00 0.00 0.00 0.00 0.00 0.00 0.00 0.00 0.00 0.00 0.00 0.00 0.01 0.02 0.01 0.00 0.00 0.00 0.00 0.00 0.00 0.00 0.00 0.00 0.00 0.00 0.00 0.00 0.00 0.00 0.00 0.00 0.00 0.00 0.00 0.00 0.00 0.00 0.00 0.00 0.07 0.01 0.00 0.00
0.01 0.00 0.00 0.00 0.00 0.00 0.00 0.00 0.00 0.00 0.00 0.00 0.00 0.01 0.01 0.00 0.00 0.00 0.00 0.00 0.00 0.00 0.00 0.00 0.00 0.00 0.00 0.00 0.00 0.00 0.00 0.00 0.00 0.00 0.00 0.00 0.00 0.00 0.00 0.01 0.01 0.07 0.02 0.00
0.01 0.00 0.00 0.00 0.00 0.00 0.00 0.00 0.01 0.00 0.00 0.00 0.00 0.00 0.00 0.00 0.00 0.00 0.00 0.00 0.00 0.00 0.00 0.00 0.00 0.00 0.00 0.00 0.00 0.00 0.00 0.00 0.00 0.00 0.00 0.00 0.00 0.00 0.00 0.00 0.00 0.00 0.00 0.00
0.02 0.01 0.00 0.00 0.00 0.00 0.00 0.00 0.00 0.01 0.00 0.00 0.00 0.00 0.00 0.00 0.00 0.00 0.00 0.00 0.00 0.00 0.00 0.00 0.00 0.00 0.00 0.00 0.00 0.00 0.00 0.00 0.00 0.00 0.00 0.00 0.00 0.00 0.00 0.00 0.00 0.00 0.00 0.00
0.02 0.01 0.01 0.00 0.00 0.00 0.00 0.01 0.01 0.01 0.00 0.00 0.00 0.00 0.00 0.00 0.00 0.00 0.00 0.00 0.00 0.00 0.00 0.00 0.00 0.00 0.00 0.00 0.00 0.00 0.00 0.00 0.00 0.00 0.00 0.00 0.00 0.00 0.00 0.00 0.00 0.00 0.00 0.01
0.03 0.02 0.02 0.01 0.01 0.00 0.00 0.00 0.00 0.01 0.01 0.00 0.00 0.00 0.00 0.00 0.00 0.00 0.00 0.00 0.00 0.00 0.00 0.00 0.00 0.00 0.00 0.00 0.00 0.00 0.00 0.00 0.01 0.01 0.00 0.00 0.00 0.00 0.00 0.00 0.00 0.00 0.00 0.00
0.05 0.06 0.03 0.03 0.03 0.00 0.00 0.00 0.00 0.01 0.01 0.00 0.00 0.00 0.00 0.00 0.00 0.00 0.00 0.00 0.00 0.00 0.01 0.01 0.01 0.00 0.01 0.00 0.01 0.00 0.00 0.01 0.05 0.04 0.02 0.00 0.00 0.00 0.00 0.00 0.01 0.00 0.00 0.00
0.06 0.06 0.04 0.06 0.07 0.03 0.00 0.00 0.00 0.00 0.01 0.00 0.00 0.00 0.00 0.00 0.00 0.00 0.00 0.00 0.01 0.01 0.03 0.02 0.00 0.00 0.00 0.00 0.00 0.02 0.04 0.09 0.09 0.06 0.06 0.00 0.00 0.00 0.00 0.03 0.02 0.00 0.00 0.00
0.07 0.06 0.07 0.09 0.12 0.05 0.01 0.01 0.00 0.00 0.00 0.00 0.00 0.00 0.00 0.00 0.00 0.01 0.00 0.02 0.01 0.02 0.06 0.03 0.00 0.00 0.00 0.00 0.00 0.00 0.01 0.03 0.05 0.04 0.06 0.00 0.00 0.00 0.00 0.00 0.00 0.00 0.00 0.00
0.10 0.05 0.08 0.12 0.14 0.10 0.05 0.02 0.02 0.00 0.01 0.00 0.00 0.00 0.00 0.00 0.00 0.00 0.00 0.01 0.00 0.01 0.04 0.03 0.02 0.00 0.00 0.00 0.00 0.00 0.00 0.00 0.00 0.00 0.00 0.00 0.00 0.00 0.00 0.00 0.00 0.00 0.00 0.00
0.07 0.08 0.07 0.10 0.13 0.10 0.17 0.12 0.03 0.03 0.10 0.02 0.03 0.01 0.00 0.00 0.00 0.00 0.03 0.03 0.02 0.04 0.01 0.02 0.02 0.03 0.01 0.00 0.00 0.00 0.00 0.00 0.00 0.00 0.00 0.00 0.00 0.00 0.00 0.00 0.00 0.00 0.00 0.00
0.12 0.12 0.07 0.07 0.07 0.12 0.18 0.05 0.02 0.07 0.11 0.12 0.03 0.01 0.02 0.01 0.02 0.02 0.02 0.05 0.05 0.11 0.17 0.10 0.04 0.03 0.01 0.00 0.00 0.00 0.00 0.00 0.00 0.00 0.00 0.00 0.00 0.00 0.00 0.00 0.00 0.00 0.00 0.00
0.16 0.13 0.04 0.10 0.15 0.14 0.07 0.01 0.02 0.06 0.16 0.19 0.13 0.15 0.01 0.01 0.05 0.04 0.05 0.05 0.13 0.09 0.26 0.33 0.15 0.06 0.05 0.01 0.00 0.00 0.00 0.00 0.00 0.00 0.00 0.00 0.00 0.00 0.00 0.00 0.00 0.00 0.00 0.00
0.19 0.08 0.11 0.13 0.08 0.11 0.10 0.03 0.01 0.02 0.07 0.34 0.32 0.30 0.16 0.06 0.09 0.09 0.10 0.10 0.22 0.33 0.20 0.36 0.24 0.10 0.16 0.12 0.02 0.00 0.00 0.00 0.00 0.00 0.00 0.00 0.00 0.00 0.00 0.00 0.00 0.00 0.00 0.00
0.09 0.11 0.09 0.03 0.02 0.05 0.05 0.02 0.08 0.17 0.20 0.37 0.68 0.62 0.47 0.14 0.23 0.26 0.27 0.23 0.37 0.63 0.36 0.18 0.25 0.21 0.31 0.22 0.04 0.00 0.01 0.01 0.01 0.00 0.00 0.00 0.00 0.00 0.00 0.00 0.00 0.00 0.00 0.00
0.06 0.05 0.01 0.00 0.04 0.02 0.02 0.01 0.05 0.18 0.49 0.70 0.96 0.97 0.95 0.32 0.51 0.44 0.39 0.34 0.39 0.85 0.52 0.15 0.08 0.28 0.28 0.16 0.02 0.04 0.02 0.01 0.00 0.00 0.00 0.00 0.00 0.00 0.00 0.00 0.00 0.00 0.00 0.00
0.01 0.00 0.00 0.01 0.01 0.01 0.04 0.08 0.12 0.26 0.54 0.67 0.74 0.89 0.79 0.64 0.61 0.44 0.52 0.37 0.41 0.57 0.43 0.16 0.19 0.21 0.25 0.05 0.06 0.08 0.03 0.00 0.00 0.00 0.00 0.00 0.00 0.00 0.00 0.00 0.00 0.00 0.00 0.00
0.00 0.00 0.00 0.01 0.00 0.00 0.06 0.22 0.32 0.47 0.46 0.46 0.60 0.53 0.44 0.88 0.65 0.55 0.58 0.31 0.43 0.57 0.27 0.21 0.25 0.16 0.02 0.03 0.05 0.04 0.00 0.00 0.00 0.00 0.00 0.00 0.00 0.00 0.00 0.00 0.00 0.00 0.00 0.01
0.00 0.00 0.00 0.00 0.00 0.02 0.10 0.20 0.24 0.22 0.27 0.38 0.38 0.39 0.36 0.48 0.52 0.33 0.39 0.42 0.40 0.67 0.41 0.24 0.13 0.04 0.01 0.00 0.01 0.00 0.00 0.00 0.00 0.00 0.00 0.00 0.00 0.00 0.00 0.00 0.00 0.00 0.00 0.03
0.00 0.01 0.00 0.01 0.02 0.07 0.13 0.10 0.10 0.15 0.19 0.20 0.25 0.27 0.33 0.43 0.27 0.40 0.33 0.26 0.22 0.24 0.15 0.23 0.16 0.05 0.02 0.00 0.00 0.01 0.00 0.00 0.00 0.00 0.00 0.00 0.00 0.00 0.00 0.00 0.00 0.00 0.00 0.01
0.01 0.01 0.01 0.01 0.02 0.06 0.09 0.06 0.07 0.08 0.08 0.07 0.11 0.26 0.22 0.39 0.33 0.34 0.33 0.13 0.06 0.04 0.06 0.03 0.00 0.00 0.00 0.00 0.00 0.00 0.00 0.00 0.02 0.03 0.03 0.02 0.03 0.05 0.08 0.08 0.06 0.06 0.06 0.05
0.00 0.00 0.00 0.01 0.02 0.05 0.03 0.04 0.04 0.02 0.02 0.01 0.03 0.11 0.20 0.27 0.22 0.17 0.16 0.08 0.05 0.06 0.05 0.03 0.00 0.00 0.00 0.00 0.00 0.00 0.00 0.01 0.07 0.17 0.20 0.21 0.31 0.32 0.26 0.19 0.13 0.12 0.11 0.07
0.00 0.00 0.00 0.00 0.00 0.00 0.00 0.00 0.00 0.00 0.01 0.01 0.02 0.07 0.12 0.17 0.20 0.14 0.08 0.04 0.03 0.03 0.06 0.02 0.00 0.00 0.00 0.00 0.00 0.00 0.00 0.00 0.00 0.08 0.06 0.03 0.07 0.06 0.17 0.25 0.21 0.13 0.10 0.09
0.00 0.00 0.00 0.00 0.00 0.00 0.00 0.00 0.00 0.00 0.00 0.03 0.05 0.08 0.12 0.14 0.19 0.14 0.08 0.07 0.06 0.05 0.02 0.00 0.02 0.02 0.00 0.00 0.00 0.00 0.00 0.00 0.00 0.01 0.01 0.00 0.00 0.00 0.02 0.08 0.21 0.20 0.17 0.19
0.00 0.00 0.00 0.00 0.00 0.00 0.00 0.00 0.00 0.00 0.03 0.10 0.15 0.19 0.09 0.10 0.13 0.07 0.05 0.15 0.13 0.07 0.05 0.01 0.00 0.00 0.00 0.00 0.00 0.00 0.00 0.00 0.00 0.00 0.00 0.01 0.00 0.00 0.00 0.00 0.01 0.06 0.14 0.20

GFSNW_prec_precacc24_045.txt.gz
Total_Precipitation_Accumulation
0.00 0.00 0.00 0.00 0.00 0.00 0.00 0.00 0.00 0.00 0.00 0.00 0.02 0.09 0.09 0.03 0.00 0.00 0.00 0.00 0.00 0.00 0.00 0.00 0.00 0.00 0.00 0.00 0.00 0.00 0.00 0.00 0.01 0.01 0.00 0.00 0.00 0.01 0.02 0.00 0.00 0.00 0.00 0.00
0.00 0.00 0.00 0.00 0.00 0.00 0.00 0.00 0.00 0.00 0.00 0.00 0.00 0.00 0.00 0.00 0.00 0.00 0.00 0.00 0.00 0.00 0.00 0.00 0.00 0.00 0.00 0.00 0.00 0.00 0.00 0.00 0.00 0.01 0.00 0.00 0.00 0.00 0.00 0.01 0.00 0.00 0.00 0.00
0.00 0.00 0.00 0.00 0.00 0.00 0.00 0.00 0.00 0.00 0.00 0.00 0.00 0.00 0.00 0.00 0.00 0.00 0.00 0.00 0.00 0.00 0.00 0.00 0.00 0.00 0.00 0.00 0.00 0.00 0.00 0.00 0.00 0.00 0.00 0.00 0.00 0.00 0.00 0.00 0.02 0.00 0.00 0.00
0.01 0.00 0.00 0.00 0.00 0.00 0.00 0.00 0.00 0.00 0.00 0.00 0.00 0.00 0.00 0.00 0.00 0.00 0.00 0.00 0.00 0.00 0.00 0.00 0.00 0.00 0.00 0.00 0.00 0.00 0.00 0.00 0.00 0.00 0.00 0.00 0.00 0.00 0.00 0.00 0.00 0.02 0.00 0.00
0.01 0.00 0.00 0.00 0.00 0.00 0.00 0.00 0.01 0.00 0.00 0.00 0.00 0.00 0.00 0.00 0.00 0.00 0.00 0.00 0.00 0.00 0.00 0.00 0.00 0.00 0.00 0.00 0.00 0.00 0.00 0.00 0.00 0.00 0.00 0.00 0.00 0.00 0.00 0.00 0.00 0.00 0.00 0.00
0.02 0.00 0.00 0.00 0.00 0.00 0.00 0.00 0.00 0.01 0.00 0.00 0.00 0.00 0.00 0.00 0.00 0.00 0.00 0.00 0.00 0.00 0.00 0.00 0.00 0.00 0.00 0.00 0.00 0.00 0.00 0.00 0.00 0.00 0.00 0.00 0.00 0.00 0.00 0.00 0.00 0.00 0.00 0.00
0.02 0.01 0.01 0.00 0.00 0.00 0.00 0.00 0.01 0.01 0.00 0.00 0.00 0.00 0.00 0.00 0.00 0.00 0.00 0.00 0.00 0.00 0.00 0.00 0.00 0.00 0.00 0.00 0.00 0.00 0.00 0.00 0.00 0.00 0.00 0.00 0.00 0.00 0.00 0.00 0.00 0.00 0.00 0.00
0.03 0.02 0.02 0.01 0.01 0.00 0.00 0.00 0.00 0.00 0.00 0.00 0.00 0.00 0.00 0.00 0.00 0.00 0.00 0.00 0.00 0.00 0.00 0.00 0.00 0.00 0.00 0.00 0.00 0.00 0.00 0.00 0.00 0.01 0.00 0.00 0.00 0.00 0.00 0.00 0.00 0.00 0.00 0.00
0.05 0.06 0.03 0.03 0.03 0.00 0.00 0.00 0.00 0.00 0.01 0.00 0.00 0.00 0.00 0.00 0.00 0.00 0.00 0.00 0.00 0.00 0.01 0.02 0.01 0.00 0.00 0.00 0.01 0.00 0.00 0.00 0.03 0.04 0.01 0.00 0.00 0.00 0.00 0.00 0.01 0.00 0.00 0.00
0.05 0.06 0.04 0.06 0.07 0.03 0.00 0.00 0.00 0.00 0.00 0.00 0.00 0.00 0.00 0.00 0.00 0.00 0.00 0.00 0.01 0.01 0.03 0.03 0.00 0.00 0.00 0.00 0.00 0.02 0.03 0.06 0.07 0.05 0.04 0.00 0.00 0.00 0.00 0.03 0.02 0.00 0.00 0.00
0.07 0.06 0.07 0.10 0.13 0.05 0.01 0.01 0.00 0.00 0.00 0.00 0.00 0.00 0.00 0.00 0.00 0.01 0.00 0.02 0.01 0.02 0.06 0.03 0.00 0.00 0.00 0.00 0.00 0.00 0.01 0.03 0.04 0.04 0.06 0.00 0.00 0.00 0.00 0.00 0.00 0.00 0.00 0.00
0.10 0.05 0.07 0.11 0.14 0.10 0.06 0.02 0.03 0.01 0.01 0.00 0.00 0.00 0.00 0.00 0.00 0.00 0.00 0.01 0.00 0.02 0.04 0.04 0.02 0.01 0.00 0.00 0.00 0.00 0.00 0.00 0.00 0.00 0.00 0.00 0.00 0.00 0.00 0.00 0.00 0.00 0.00 0.00
0.06 0.08 0.08 0.10 0.13 0.11 0.18 0.13 0.04 0.03 0.11 0.02 0.03 0.01 0.00 0.00 0.00 0.00 0.02 0.03 0.02 0.04 0.02 0.02 0.03 0.03 0.01 0.00 0.00 0.00 0.00 0.00 0.00 0.00 0.00 0.00 0.00 0.00 0.00 0.00 0.00 0.00 0.00 0.00
0.12 0.12 0.06 0.06 0.07 0.12 0.17 0.05 0.02 0.07 0.11 0.10 0.01 0.00 0.01 0.01 0.02 0.02 0.02 0.05 0.05 0.11 0.17 0.10 0.05 0.04 0.01 0.00 0.00 0.00 0.00 0.00 0.00 0.00 0.00 0.00 0.00 0.00 0.00 0.00 0.00 0.00 0.00 0.00
0.15 0.13 0.04 0.09 0.14 0.12 0.05 0.01 0.02 0.06 0.15 0.12 0.02 0.07 0.01 0.01 0.05 0.04 0.05 0.05 0.13 0.09 0.26 0.33 0.15 0.06 0.05 0.02 0.00 0.00 0.00 0.00 0.00 0.00 0.00 0.00 0.00 0.00 0.00 0.00 0.00 0.00 0.00 0.00
0.18 0.08 0.11 0.12 0.05 0.06 0.06 0.03 0.00 0.01 0.05 0.22 0.11 0.18 0.15 0.06 0.09 0.09 0.10 0.10 0.22 0.33 0.20 0.36 0.24 0.10 0.16 0.12 0.03 0.00 0.00 0.00 0.00 0.00 0.00 0.00 0.00 0.00 0.00 0.00 0.00 0.00 0.00 0.00
0.08 0.10 0.09 0.02 0.01 0.03 0.02 0.02 0.02 0.08 0.05 0.18 0.38 0.50 0.47 0.14 0.23 0.26 0.27 0.23 0.37 0.63 0.36 0.17 0.25 0.21 0.31 0.22 0.04 0.00 0.01 0.01 0.01 0.01 0.00 0.00 0.00 0.00 0.00 0.00 0.00 0.00 0.00 0.00
0.05 0.05 0.01 0.00 0.01 0.01 0.01 0.00 0.01 0.05 0.26 0.46 0.63 0.83 0.92 0.29 0.50 0.44 0.39 0.34 0.39 0.85 0.52 0.15 0.08 0.27 0.28 0.16 0.02 0.04 0.03 0.03 0.01 0.00 0.00 0.00 0.00 0.00 0.00 0.00 0.00 0.00 0.00 0.00
0.01 0.00 0.00 0.01 0.00 0.01 0.02 0.05 0.07 0.12 0.30 0.43 0.64 0.88 0.77 0.62 0.60 0.45 0.52 0.37 0.40 0.57 0.43 0.15 0.18 0.21 0.25 0.05 0.06 0.10 0.13 0.10 0.04 0.02 0.00 0.00 0.00 0.00 0.00 0.00 0.00 0.00 0.00 0.00
0.00 0.00 0.00 0.01 0.00 0.00 0.04 0.14 0.19 0.31 0.34 0.41 0.56 0.53 0.44 0.88 0.66 0.57 0.59 0.32 0.43 0.57 0.27 0.21 0.26 0.17 0.02 0.03 0.06 0.06 0.13 0.14 0.06 0.01 0.00 0.00 0.00 0.00 0.00 0.00 0.00 0.00 0.00 0.00
0.00 0.00 0.00 0.00 0.00 0.01 0.06 0.12 0.14 0.16 0.25 0.38 0.39 0.40 0.37 0.48 0.54 0.35 0.40 0.44 0.42 0.69 0.44 0.25 0.22 0.17 0.04 0.00 0.02 0.01 0.04 0.07 0.02 0.00 0.00 0.00 0.00 0.00 0.00 0.00 0.00 0.00 0.00 0.02
0.00 0.01 0.00 0.01 0.01 0.05 0.11 0.09 0.09 0.14 0.19 0.20 0.26 0.27 0.33 0.43 0.30 0.44 0.36 0.30 0.26 0.28 0.20 0.27 0.24 0.18 0.14 0.09 0.01 0.02 0.02 0.03 0.03 0.00 0.00 0.00 0.00 0.00 0.00 0.00 0.00 0.00 0.00 0.00
0.00 0.01 0.01 0.01 0.01 0.06 0.08 0.06 0.06 0.07 0.07 0.07 0.11 0.26 0.22 0.39 0.36 0.39 0.40 0.19 0.08 0.08 0.11 0.07 0.04 0.00 0.00 0.05 0.07 0.05 0.04 0.05 0.10 0.06 0.03 0.02 0.03 0.05 0.08 0.08 0.06 0.05 0.04 0.03
0.00 0.00 0.00 0.01 0.01 0.05 0.03 0.04 0.04 0.02 0.01 0.01 0.03 0.11 0.20 0.27 0.23 0.22 0.21 0.10 0.07 0.09 0.11 0.11 0.03 0.02 0.00 0.00 0.00 0.00 0.00 0.02 0.09 0.18 0.20 0.21 0.31 0.30 0.25 0.18 0.12 0.07 0.04 0.05
0.00 0.00 0.00 0.00 0.00 0.00 0.00 0.00 0.00 0.00 0.00 0.01 0.02 0.08 0.12 0.17 0.22 0.18 0.14 0.09 0.09 0.13 0.20 0.13 0.07 0.06 0.03 0.00 0.00 0.00 0.00 0.00 0.01 0.08 0.06 0.04 0.07 0.06 0.12 0.20 0.20 0.12 0.10 0.09
0.00 0.00 0.00 0.00 0.00 0.00 0.00 0.00 0.00 0.00 0.00 0.03 0.05 0.07 0.13 0.16 0.25 0.20 0.19 0.27 0.28 0.20 0.14 0.08 0.04 0.07 0.05 0.02 0.00 0.00 0.00 0.00 0.00 0.01 0.01 0.00 0.00 0.00 0.02 0.08 0.21 0.20 0.17 0.19
0.00 0.00 0.00 0.00 0.00 0.00 0.00 0.00 0.00 0.00 0.03 0.09 0.13 0.17 0.08 0.11 0.14 0.13 0.21 0.31 0.19 0.09 0.06 0.02 0.01 0.01 0.00 0.00 0.00 0.00 0.00 0.00 0.01 0.02 0.02 0.02 0.02 0.01 0.00 0.00 0.01 0.06 0.14 0.20

GFSNW_prec_precacc24_048.txt.gz
Total_Precipitation_Accumulation
0.00 0.00 0.00 0.00 0.00 0.00 0.00 0.00 0.00 0.00 0.00 0.00 0.00 0.00 0.00 0.00 0.00 0.00 0.00 0.00 0.00 0.00 0.00 0.00 0.00 0.00 0.00 0.00 0.00 0.00 0.00 0.00 0.02 0.02 0.00 0.00 0.04 0.01 0.03 0.01 0.00 0.00 0.00 0.00
0.00 0.00 0.00 0.00 0.00 0.00 0.00 0.00 0.00 0.00 0.00 0.00 0.00 0.00 0.00 0.00 0.00 0.00 0.00 0.00 0.00 0.00 0.00 0.00 0.00 0.00 0.00 0.00 0.00 0.00 0.00 0.00 0.01 0.01 0.00 0.00 0.03 0.01 0.00 0.01 0.00 0.00 0.00 0.00
0.00 0.00 0.00 0.00 0.00 0.00 0.00 0.00 0.00 0.00 0.00 0.00 0.00 0.00 0.00 0.00 0.00 0.00 0.00 0.00 0.00 0.00 0.00 0.00 0.00 0.00 0.00 0.00 0.00 0.00 0.00 0.00 0.00 0.00 0.00 0.00 0.00 0.00 0.00 0.00 0.01 0.00 0.00 0.00
0.01 0.00 0.00 0.00 0.00 0.00 0.00 0.00 0.00 0.00 0.00 0.00 0.00 0.00 0.00 0.00 0.00 0.00 0.00 0.00 0.00 0.00 0.00 0.00 0.00 0.00 0.00 0.00 0.00 0.00 0.00 0.00 0.00 0.00 0.00 0.00 0.00 0.00 0.00 0.00 0.00 0.01 0.00 0.00
0.01 0.00 0.00 0.00 0.00 0.00 0.00 0.00 0.01 0.00 0.00 0.00 0.00 0.00 0.00 0.00 0.00 0.00 0.00 0.00 0.00 0.00 0.00 0.00 0.00 0.00 0.00 0.00 0.00 0.00 0.00 0.00 0.00 0.00 0.00 0.00 0.00 0.00 0.00 0.00 0.00 0.00 0.00 0.00
0.02 0.00 0.00 0.00 0.00 0.00 0.00 0.00 0.00 0.01 0.00 0.00 0.00 0.00 0.00 0.00 0.00 0.00 0.00 0.00 0.00 0.00 0.00 0.00 0.00 0.00 0.00 0.00 0.00 0.00 0.00 0.00 0.00 0.00 0.00 0.00 0.00 0.00 0.00 0.00 0.00 0.00 0.00 0.00
0.02 0.01 0.01 0.00 0.00 0.00 0.00 0.00 0.00 0.01 0.00 0.00 0.00 0.00 0.00 0.00 0.00 0.00 0.00 0.00 0.00 0.00 0.00 0.00 0.00 0.00 0.00 0.00 0.00 0.00 0.00 0.00 0.00 0.00 0.00 0.00 0.00 0.00 0.00 0.00 0.00 0.00 0.00 0.00
0.03 0.02 0.02 0.01 0.01 0.00 0.00 0.00 0.00 0.00 0.00 0.00 0.00 0.00 0.00 0.00 0.00 0.00 0.00 0.00 0.00 0.00 0.00 0.00 0.00 0.00 0.00 0.00 0.00 0.00 0.00 0.00 0.00 0.00 0.00 0.00 0.00 0.00 0.00 0.00 0.00 0.00 0.00 0.00
0.05 0.06 0.03 0.04 0.03 0.00 0.00 0.00 0.00 0.00 0.00 0.00 0.00 0.00 0.00 0.00 0.00 0.00 0.01 0.00 0.00 0.00 0.01 0.02 0.01 0.01 0.00 0.00 0.00 0.00 0.00 0.00 0.02 0.03 0.01 0.00 0.00 0.00 0.00 0.00 0.01 0.00 0.00 0.00
0.05 0.06 0.04 0.06 0.07 0.03 0.00 0.00 0.00 0.00 0.00 0.00 0.00 0.00 0.00 0.00 0.00 0.00 0.00 0.00 0.01 0.01 0.03 0.03 0.00 0.00 0.00 0.00 0.00 0.01 0.03 0.04 0.05 0.04 0.04 0.00 0.00 0.00 0.00 0.03 0.02 0.00 0.00 0.00
0.07 0.06 0.06 0.10 0.12 0.05 0.01 0.01 0.00 0.00 0.00 0.00 0.00 0.00 0.00 0.00 0.00 0.00 0.00 0.02 0.02 0.02 0.06 0.04 0.00 0.00 0.00 0.00 0.00 0.00 0.01 0.02 0.03 0.03 0.05 0.00 0.00 0.00 0.00 0.00 0.00 0.00 0.00 0.00
0.10 0.05 0.07 0.11 0.15 0.11 0.06 0.02 0.04 0.01 0.01 0.00 0.00 0.00 0.00 0.00 0.00 0.00 0.00 0.01 0.00 0.02 0.04 0.04 0.02 0.01 0.00 0.00 0.00 0.00 0.00 0.00 0.00 0.00 0.00 0.00 0.00 0.00 0.00 0.00 0.00 0.00 0.00 0.00
0.06 0.08 0.08 0.10 0.13 0.12 0.18 0.13 0.04 0.03 0.11 0.02 0.02 0.01 0.00 0.00 0.00 0.00 0.01 0.03 0.02 0.04 0.02 0.02 0.03 0.03 0.01 0.00 0.00 0.00 0.00 0.00 0.00 0.00 0.00 0.00 0.00 0.00 0.00 0.00 0.00 0.00 0.00 0.00
0.11 0.12 0.06 0.07 0.07 0.11 0.16 0.05 0.02 0.07 0.11 0.09 0.01 0.00 0.00 0.00 0.01 0.01 0.01 0.05 0.05 0.11 0.17 0.10 0.05 0.04 0.01 0.01 0.00 0.00 0.00 0.00 0.00 0.00 0.00 0.00 0.00 0.00 0.00 0.00 0.00 0.00 0.00 0.00
0.15 0.13 0.04 0.09 0.13 0.10 0.03 0.01 0.02 0.06 0.15 0.11 0.02 0.00 0.00 0.00 0.04 0.03 0.04 0.05 0.13 0.09 0.26 0.34 0.16 0.06 0.05 0.02 0.00 0.00 0.00 0.00 0.00 0.00 0.00 0.00 0.00 0.00 0.00 0.00 0.00 0.00 0.00 0.00
0.18 0.08 0.10 0.11 0.04 0.03 0.01 0.01 0.00 0.00 0.04 0.21 0.06 0.00 0.00 0.01 0.08 0.08 0.09 0.10 0.22 0.33 0.20 0.35 0.24 0.10 0.16 0.12 0.03 0.00 0.00 0.00 0.00 0.00 0.00 0.00 0.00 0.00 0.00 0.00 0.00 0.00 0.00 0.00
0.08 0.10 0.08 0.02 0.01 0.01 0.01 0.01 0.01 0.01 0.02 0.10 0.10 0.12 0.12 0.06 0.21 0.25 0.26 0.22 0.36 0.63 0.35 0.17 0.25 0.21 0.30 0.22 0.04 0.00 0.00 0.00 0.00 0.01 0.00 0.00 0.00 0.00 0.00 0.00 0.00 0.00 0.00 0.00
0.05 0.05 0.01 0.00 0.01 0.01 0.01 0.00 0.01 0.02 0.12 0.23 0.26 0.40 0.69 0.23 0.49 0.43 0.38 0.33 0.38 0.84 0.51 0.14 0.08 0.27 0.27 0.15 0.02 0.04 0.02 0.03 0.02 0.01 0.01 0.01 0.00 0.00 0.00 0.00 0.00 0.00 0.00 0.00
0.01 0.00 0.00 0.01 0.00 0.00 0.01 0.03 0.06 0.09 0.16 0.21 0.36 0.59 0.61 0.58 0.58 0.44 0.52 0.35 0.38 0.57 0.42 0.15 0.18 0.20 0.25 0.05 0.06 0.10 0.13 0.15 0.16 0.13 0.04 0.02 0.02 0.00 0.00 0.00 0.00 0.00 0.00 0.00
0.00 0.00 0.00 0.00 0.00 0.00 0.02 0.09 0.13 0.23 0.22 0.23 0.36 0.44 0.41 0.84 0.64 0.56 0.57 0.31 0.41 0.57 0.26 0.20 0.25 0.17 0.02 0.03 0.06 0.06 0.14 0.24 0.28 0.27 0.10 0.03 0.02 0.00 0.00 0.00 0.00 0.00 0.00 0.00
0.00 0.00 0.00 0.00 0.00 0.00 0.04 0.09 0.12 0.13 0.17 0.24 0.26 0.39 0.36 0.46 0.53 0.33 0.36 0.43 0.41 0.69 0.44 0.25 0.22 0.22 0.09 0.05 0.02 0.01 0.07 0.15 0.10 0.13 0.05 0.01 0.00 0.00 0.00 0.00 0.00 0.00 0.00 0.00
0.00 0.01 0.00 0.01 0.01 0.03 0.09 0.08 0.08 0.13 0.18 0.20 0.26 0.27 0.33 0.43 0.30 0.46 0.37 0.32 0.28 0.29 0.23 0.29 0.29 0.23 0.17 0.19 0.07 0.03 0.02 0.04 0.05 0.01 0.01 0.00 0.00 0.00 0.00 0.00 0.00 0.00 0.00 0.00
0.00 0.01 0.01 0.01 0.01 0.04 0.07 0.05 0.06 0.06 0.06 0.07 0.11 0.26 0.22 0.39 0.36 0.40 0.43 0.22 0.09 0.13 0.17 0.19 0.14 0.05 0.02 0.09 0.17 0.16 0.11 0.06 0.20 0.23 0.10 0.03 0.03 0.05 0.08 0.08 0.06 0.05 0.04 0.03
0.00 0.00 0.00 0.00 0.01 0.05 0.03 0.04 0.04 0.01 0.00 0.01 0.03 0.11 0.20 0.27 0.23 0.23 0.24 0.11 0.11 0.21 0.24 0.20 0.07 0.05 0.04 0.02 0.04 0.07 0.08 0.07 0.15 0.36 0.37 0.26 0.30 0.30 0.23 0.17 0.12 0.07 0.03 0.01
0.00 0.00 0.00 0.00 0.00 0.00 0.00 0.00 0.00 0.00 0.00 0.01 0.02 0.07 0.13 0.17 0.23 0.21 0.20 0.21 0.34 0.28 0.26 0.17 0.10 0.09 0.08 0.05 0.03 0.02 0.05 0.07 0.08 0.11 0.19 0.18 0.08 0.05 0.03 0.07 0.11 0.09 0.06 0.05
0.00 0.00 0.00 0.00 0.00 0.00 0.00 0.00 0.00 0.00 0.00 0.02 0.05 0.06 0.13 0.16 0.25 0.20 0.27 0.47 0.40 0.23 0.15 0.10 0.05 0.09 0.07 0.05 0.03 0.01 0.00 0.01 0.02 0.03 0.05 0.04 0.01 0.00 0.01 0.04 0.11 0.14 0.13 0.17
0.00 0.00 0.00 0.00 0.00 0.00 0.00 0.00 0.00 0.00 0.01 0.06 0.12 0.15 0.08 0.10 0.13 0.13 0.21 0.31 0.19 0.09 0.06 0.02 0.01 0.01 0.01 0.01 0.00 0.00 0.00 0.01 0.03 0.08 0.08 0.09 0.07 0.02 0.00 0.00 0.01 0.04 0.11 0.18

GFSNW_prec_precacc24_051.txt.gz
Total_Precipitation_Accumulation
0.00 0.00 0.00 0.00 0.00 0.00 0.00 0.00 0.00 0.00 0.00 0.01 0.00 0.00 0.00 0.00 0.00 0.00 0.00 0.00 0.00 0.00 0.00 0.00 0.00 0.00 0.00 0.00 0.00 0.00 0.00 0.00 0.02 0.02 0.00 0.00 0.04 0.01 0.03 0.02 0.01 0.00 0.00 0.00
0.00 0.00 0.00 0.00 0.00 0.00 0.00 0.00 0.00 0.00 0.00 0.00 0.00 0.00 0.00 0.00 0.00 0.00 0.00 0.00 0.00 0.00 0.00 0.00 0.00 0.00 0.00 0.00 0.00 0.00 0.00 0.00 0.02 0.03 0.02 0.01 0.04 0.03 0.00 0.01 0.01 0.00 0.00 0.00
0.00 0.00 0.00 0.00 0.00 0.00 0.00 0.00 0.00 0.00 0.00 0.00 0.00 0.00 0.00 0.00 0.00 0.00 0.00 0.00 0.00 0.00 0.00 0.00 0.00 0.00 0.00 0.00 0.00 0.00 0.00 0.00 0.00 0.00 0.00 0.00 0.00 0.00 0.00 0.01 0.04 0.00 0.00 0.00
0.01 0.00 0.00 0.00 0.00 0.00 0.00 0.00 0.00 0.00 0.00 0.00 0.00 0.00 0.00 0.00 0.00 0.00 0.00 0.00 0.00 0.00 0.00 0.00 0.00 0.00 0.00 0.00 0.00 0.00 0.00 0.00 0.00 0.00 0.00 0.00 0.00 0.00 0.00 0.00 0.01 0.02 0.00 0.00
0.01 0.00 0.00 0.00 0.00 0.00 0.00 0.00 0.00 0.00 0.00 0.00 0.00 0.00 0.00 0.01 0.01 0.00 0.00 0.00 0.00 0.00 0.00 0.00 0.00 0.00 0.00 0.00 0.00 0.00 0.00 0.00 0.00 0.00 0.00 0.00 0.00 0.00 0.00 0.00 0.00 0.00 0.00 0.00
0.02 0.00 0.00 0.00 0.00 0.00 0.00 0.00 0.00 0.00 0.00 0.00 0.00 0.00 0.00 0.00 0.00 0.01 0.00 0.00 0.00 0.00 0.00 0.00 0.00 0.00 0.00 0.00 0.00 0.00 0.00 0.00 0.00 0.00 0.00 0.00 0.00 0.00 0.00 0.00 0.00 0.00 0.00 0.00
0.02 0.01 0.01 0.00 0.00 0.00 0.00 0.00 0.00 0.01 0.00 0.00 0.00 0.00 0.00 0.00 0.00 0.00 0.00 0.00 0.00 0.00 0.00 0.00 0.00 0.00 0.00 0.00 0.00 0.00 0.00 0.00 0.00 0.00 0.00 0.00 0.00 0.00 0.00 0.00 0.00 0.00 0.00 0.00
0.03 0.02 0.02 0.01 0.01 0.00 0.00 0.00 0.00 0.00 0.00 0.00 0.00 0.00 0.00 0.00 0.00 0.00 0.00 0.01 0.00 0.00 0.00 0.00 0.00 0.00 0.00 0.00 0.00 0.00 0.00 0.00 0.00 0.00 0.00 0.00 0.00 0.00 0.00 0.00 0.00 0.00 0.00 0.00
0.04 0.05 0.03 0.04 0.03 0.00 0.00 0.00 0.00 0.00 0.00 0.00 0.00 0.00 0.00 0.00 0.00 0.00 0.01 0.00 0.00 0.00 0.01 0.02 0.01 0.01 0.00 0.00 0.00 0.00 0.00 0.00 0.01 0.02 0.01 0.00 0.00 0.00 0.00 0.00 0.01 0.00 0.00 0.00
0.05 0.06 0.04 0.05 0.06 0.03 0.00 0.00 0.00 0.00 0.00 0.00 0.00 0.00 0.00 0.00 0.00 0.00 0.00 0.00 0.01 0.01 0.03 0.04 0.00 0.00 0.00 0.00 0.00 0.01 0.02 0.03 0.04 0.02 0.03 0.00 0.00 0.00 0.00 0.03 0.02 0.00 0.00 0.00
0.06 0.06 0.06 0.09 0.12 0.04 0.01 0.01 0.00 0.00 0.00 0.00 0.00 0.00 0.00 0.00 0.00 0.00 0.00 0.03 0.02 0.03 0.07 0.04 0.00 0.00 0.00 0.00 0.00 0.00 0.01 0.01 0.03 0.02 0.04 0.00 0.00 0.00 0.00 0.00 0.00 0.00 0.00 0.00
0.09 0.05 0.07 0.11 0.15 0.11 0.05 0.02 0.04 0.01 0.01 0.00 0.00 0.00 0.00 0.00 0.00 0.00 0.00 0.02 0.00 0.02 0.05 0.05 0.02 0.01 0.00 0.00 0.00 0.00 0.00 0.00 0.00 0.00 0.00 0.00 0.00 0.00 0.00 0.00 0.00 0.00 0.00 0.00
0.05 0.06 0.07 0.10 0.14 0.12 0.17 0.13 0.04 0.03 0.10 0.02 0.02 0.01 0.00 0.00 0.00 0.00 0.00 0.01 0.02 0.04 0.02 0.03 0.04 0.03 0.01 0.00 0.00 0.00 0.00 0.00 0.00 0.00 0.00 0.00 0.00 0.00 0.00 0.00 0.00 0.00 0.00 0.00
0.10 0.10 0.06 0.07 0.08 0.10 0.14 0.05 0.02 0.07 0.09 0.08 0.01 0.00 0.00 0.00 0.00 0.00 0.00 0.01 0.03 0.11 0.17 0.10 0.05 0.04 0.01 0.01 0.00 0.00 0.00 0.00 0.00 0.00 0.00 0.00 0.00 0.00 0.00 0.00 0.00 0.00 0.00 0.00
0.14 0.11 0.04 0.09 0.12 0.08 0.02 0.01 0.02 0.05 0.12 0.09 0.01 0.00 0.00 0.00 0.00 0.00 0.01 0.01 0.08 0.09 0.26 0.34 0.16 0.06 0.05 0.02 0.00 0.00 0.00 0.00 0.00 0.00 0.00 0.00 0.00 0.00 0.00 0.00 0.00 0.00 0.00 0.00
0.17 0.06 0.10 0.10 0.03 0.01 0.01 0.01 0.00 0.00 0.03 0.16 0.05 0.00 0.00 0.00 0.00 0.00 0.03 0.05 0.17 0.32 0.20 0.35 0.24 0.10 0.16 0.12 0.03 0.00 0.00 0.00 0.00 0.00 0.00 0.00 0.00 0.00 0.00 0.00 0.00 0.00 0.00 0.00
0.06 0.09 0.08 0.02 0.00 0.01 0.01 0.01 0.01 0.01 0.01 0.08 0.04 0.06 0.06 0.01 0.02 0.07 0.10 0.19 0.34 0.62 0.34 0.17 0.25 0.20 0.30 0.21 0.03 0.00 0.00 0.00 0.00 0.00 0.00 0.00 0.00 0.00 0.00 0.00 0.00 0.00 0.00 0.00
0.04 0.05 0.01 0.00 0.01 0.00 0.01 0.00 0.01 0.01 0.06 0.12 0.08 0.06 0.16 0.06 0.23 0.32 0.31 0.31 0.36 0.79 0.50 0.14 0.08 0.27 0.26 0.15 0.02 0.04 0.02 0.03 0.01 0.01 0.01 0.01 0.01 0.00 0.00 0.00 0.00 0.00 0.00 0.00
0.01 0.00 0.00 0.01 0.00 0.00 0.00 0.01 0.06 0.08 0.13 0.12 0.16 0.14 0.19 0.43 0.51 0.41 0.51 0.32 0.31 0.51 0.40 0.15 0.18 0.19 0.24 0.05 0.06 0.10 0.13 0.15 0.16 0.13 0.06 0.05 0.03 0.02 0.02 0.00 0.00 0.00 0.00 0.00
0.00 0.00 0.00 0.00 0.00 0.00 0.01 0.06 0.10 0.19 0.18 0.16 0.22 0.26 0.28 0.72 0.62 0.51 0.56 0.28 0.35 0.47 0.24 0.20 0.24 0.16 0.03 0.05 0.11 0.08 0.15 0.29 0.33 0.40 0.27 0.13 0.18 0.10 0.06 0.02 0.00 0.00 0.00 0.00
0.00 0.00 0.00 0.00 0.00 0.00 0.03 0.07 0.10 0.11 0.14 0.14 0.17 0.32 0.34 0.41 0.53 0.31 0.32 0.40 0.35 0.65 0.41 0.23 0.22 0.26 0.12 0.06 0.05 0.04 0.08 0.17 0.13 0.27 0.25 0.10 0.11 0.13 0.09 0.03 0.00 0.00 0.00 0.00
0.00 0.01 0.00 0.01 0.00 0.03 0.08 0.07 0.07 0.12 0.16 0.16 0.19 0.19 0.30 0.33 0.28 0.38 0.27 0.31 0.25 0.28 0.24 0.32 0.36 0.26 0.18 0.20 0.09 0.06 0.03 0.05 0.06 0.08 0.16 0.09 0.01 0.01 0.01 0.00 0.00 0.00 0.00 0.00
0.00 0.00 0.01 0.01 0.01 0.04 0.07 0.05 0.06 0.05 0.06 0.06 0.09 0.18 0.18 0.34 0.36 0.40 0.44 0.24 0.11 0.23 0.33 0.35 0.17 0.05 0.03 0.10 0.19 0.20 0.16 0.09 0.21 0.23 0.16 0.09 0.04 0.05 0.08 0.08 0.06 0.05 0.04 0.03
0.00 0.00 0.00 0.00 0.01 0.05 0.03 0.04 0.03 0.01 0.00 0.00 0.03 0.11 0.19 0.27 0.23 0.24 0.26 0.12 0.23 0.42 0.31 0.22 0.07 0.06 0.04 0.02 0.05 0.10 0.14 0.12 0.17 0.40 0.48 0.34 0.35 0.29 0.23 0.17 0.12 0.07 0.03 0.01
0.00 0.00 0.00 0.00 0.00 0.00 0.00 0.00 0.00 0.00 0.00 0.00 0.02 0.07 0.12 0.17 0.23 0.21 0.20 0.27 0.45 0.31 0.26 0.17 0.10 0.09 0.08 0.06 0.03 0.03 0.07 0.12 0.16 0.16 0.27 0.35 0.22 0.07 0.02 0.01 0.01 0.01 0.01 0.01
0.00 0.00 0.00 0.00 0.00 0.00 0.00 0.00 0.00 0.00 0.00 0.01 0.03 0.05 0.13 0.15 0.25 0.20 0.27 0.47 0.40 0.23 0.15 0.10 0.05 0.09 0.07 0.05 0.04 0.01 0.00 0.01 0.06 0.13 0.17 0.20 0.16 0.06 0.04 0.02 0.01 0.02 0.02 0.06
0.00 0.00 0.00 0.00 0.00 0.00 0.00 0.00 0.00 0.00 0.01 0.03 0.08 0.11 0.07 0.10 0.12 0.13 0.21 0.31 0.19 0.09 0.06 0.02 0.01 0.01 0.01 0.01 0.00 0.00 0.00 0.01 0.03 0.09 0.12 0.16 0.19 0.12 0.06 0.03 0.01 0.01 0.03 0.07